Observer details:
046 Klet.  Observers M. Tichy, M. Kocer.  0.57-m f/5.2 reflector + CCD.
104 San Marcello Pistoiese.  Observers L. Tesi, A. Boattini, M. Tombelli.
    Measurers G. Forti, L. Tesi, A. Boattini, M. Tombelli.  0.40-m f/5
    reflector + CCD.
151 Eschenberg Observatory, Winterthur.  Observer M. Griesser.  0.40-m f/5.8
    Hypergraph.
428 Reedy Creek.  Observer J. Broughton.  0.25-m f/6.3 Schmidt-Cassegrain
    + CCD.
557 Ondrejov.  Observer P. Kusnirak.  0.65-m f/3.6 reflector + CCD.
595 Farra d'Isonzo.  Observers G. Lombardi, E. Pettarin.  0.40-m f/4.5
    reflector + CCD.
596 Colleverde di Guidonia.  Observer V. S. Casulli.  0.40-m f/2.95 reflector
    + CCD.
649 Powell Observatory, Louisburg.  Observers G. Machin, J. Alburty, S. Kranz.
    0.30-m Schmidt-Cassegrain + CCD.
670 Camarillo.  Observer J. E. Rogers.  0.30-m f/6.7 Helin Telescope + CCD.
691 Steward Observatory, Kitt Peak.  Observers R. S. McMillan, J. L. Montani.
    0.9-m Spacewatch telescope.
704 Lincoln Laboratory ETS, New Mexico.  Observers M. Blythe, F. Shelly,
    M. Bezpalko, R. Huber, L. Manguso, S. Adams.  Measurers J. Stuart,
    R. Sayer, J. B. Evans, H. Viggh.  1.0-m f/2.15 reflector + CCD.
750 Hobbs Observatory, Fall Creek.  Observer R. Elliott.  0.3-m f/3.3 reflector
    + CCD.
859 Wykrota Observatory-CEAMIG.  Observers C. Jacques, L. Duczmal.  0.3-m f/3.3
    Schmidt-Cassegrain + CCD.
900 Moriyama.  Observer Y. Ikari.  0.25-m f/6.3 reflector + CCD.
919 Desert Beaver Observatory.  Observer K. W. Yeung.  0.45-m reflector + CCD.
926 Tenagra II Observatory.  Observers M. Schwartz, P. R. Holvorcem.  0.5-m
    f/10 Ritchey-Chretien + CCD.

Orbital elements:
2001 DO47
Eccentricity assumed
Epoch 2001 Apr. 1.0 TT = JDT 2452000.5                  Williams
M  52.52705              (2000.0)            P               Q
n   0.97156131     Peri.  118.30037     -0.74036547     -0.67220451
a   1.0096153      Node    19.46220     +0.61644771     -0.67911715
e   0.0175098      Incl.    0.04704     +0.26805073     -0.29485758
P   1.01           H   27.3           G   0.15
Residuals in seconds of arc
010219 691  1.7-  1.1+    010220 704  1.2+  0.2-    010220 596  0.5-  1.3+
010219 691  1.3-  0.3+    010220 926  1.4+  0.4-    010220 596  2.4-  0.2+
010219 691  0.8-  1.3+    010220 926  1.3+  0.3-    010220 104  0.3+  0.6+
010219 704  2.3-  0.6+    010220 926  1.4+  0.4-    010220 104  0.0   0.8+
010219 704  1.5-  0.3-    010220 926  1.3+  0.3-    010220 104  1.0-  1.1+
010219 691  0.8-  2.1+    010220 704  1.0+  0.2-    010220 104  0.8-  0.8+
010219 704  1.0-  0.2-    010220 750  1.2+  0.7+    010220 557  0.3+  0.4+
010219 691  0.0   1.2+    010220 750  1.2+  0.6+    010220 557  0.3+  0.3+
010219 691  0.6-  1.1+    010220 750  1.0+  0.3+    010220 557  0.2+  0.4+
010219 691  0.2-  1.6+    010220 750  0.7+  0.6+    010220 557  0.3+  0.4+
010219 691  0.4+  0.9+    010220 750  2.1+  0.7+    010220 557  0.4+  0.5+
010219 151  1.5-  0.3-    010220 704  1.4+  0.4-    010220 557  0.0   0.5+
010219 151  0.7-  0.4-    010220 750  1.7+  0.8+    010220 557  0.2+  0.5+
010219 151  1.7-  0.4-    010220 691  2.1+  1.1+    010220 595  0.8+  0.3-
010219 151  0.1-  0.7-    010220 900  0.4+  0.4-    010220 595  0.4+  0.1-
010219 151  1.2+  1.0-    010220 900  0.7+  0.4-    010220 595  0.3+  0.0
010219 151  0.9-  0.1-    010220 428  0.2-  2.7-    010220 595  0.7+  0.0
010219 151  0.7-  0.2+    010220 428  0.1-  1.9-    010220 595  0.4+  0.3+
010219 151  1.4-  0.5-    010220 428  0.5-  2.8-    010221 859  1.0+  2.2-
010219 151  0.8-  0.1-    010220 428  0.2-  2.1-    010221 859  0.1+  1.6-
010219 151  1.0-  0.1-    010220 428  0.4-  1.2-    010221 859  0.3-  1.2-
010219 596  1.5+  2.2-    010220 428  0.6+  1.9-    010221 859  0.5+  1.5-
010219 596  1.3+  1.2-    010220 046  0.8-  0.4+    010221 859  0.2+  1.8-
010219 596  0.5+  1.5-    010220 046  0.8-  0.4+    010221 670  0.6-  0.2-
010219 596  1.5+  1.4-    010220 046  0.6-  0.3+    010221 670  0.9-  0.9+
010220 691  0.4+  0.9+    010220 046  0.8-  0.5+    010221 691  1.0-  2.0+
010220 649  0.7+  0.4-    010220 046  0.9-  0.5+    010221 691  0.7-  2.3+
010220 649  1.3+  0.2-    010220 046  0.4-  0.6+    010221 919  0.9-  0.2+
010220 649  0.0   0.5-    010220 046  0.6-  0.6+    010221 919  1.2-  0.2+
010220 919  0.9-  2.0-    010220 596  1.2-  1.8+    010221 691  0.2+  2.3+
010220 919  0.5+  0.8-    010220 596  2.6-  0.3+

Ephemeris:
2001 DO47                a,e,i = 1.01, 0.02, 0                   q = 0.9919
Date    TT    R. A. (2000) Decl.     Delta      r     Elong.  Phase     V
2001 02 20.0  08 27.84   +19 42.1    0.0042   0.993   153.1    26.8    16.6
2001 02 20.5  08 44.51   +18 57.6    0.0041   0.993   156.5    23.4    16.5
2001 02 21.0  09 01.52   +18 05.9    0.0040   0.993   160.1    19.8    16.3
2001 02 21.5  09 18.80   +17 07.1    0.0040   0.993   163.8    16.1    16.2
2001 02 22.0  09 36.26   +16 01.3    0.0040   0.993   167.6    12.3    16.0
2001 02 22.5  09 53.83   +14 49.1    0.0039   0.993   171.4     8.6    15.8
2001 02 23.0  10 11.39   +13 30.9    0.0039   0.993   175.0     4.9    15.7
2001 02 23.5  10 28.87   +12 07.6    0.0039   0.994   177.5     2.5    15.5
2001 02 24.0  10 46.19   +10 40.1    0.0039   0.994   175.6     4.4    15.6
2001 02 24.5  11 03.27   +09 09.5    0.0039   0.994   172.0     8.0    15.8
2001 02 25.0  11 20.03   +07 36.8    0.0040   0.994   168.2    11.7    16.0
2001 02 25.5  11 36.42   +06 03.1    0.0040   0.994   164.4    15.5    16.1
2001 02 26.0  11 52.40   +04 29.4    0.0040   0.994   160.7    19.2    16.3
2001 02 26.5  12 07.93   +02 56.7    0.0041   0.994   157.0    22.9    16.4
2001 02 27.0  12 22.98   +01 25.8    0.0041   0.994   153.5    26.4    16.6
2001 02 27.5  12 37.54   -00 02.6    0.0042   0.994   150.1    29.8    16.7
2001 02 28.0  12 51.59   -01 28.0    0.0043   0.994   146.8    33.0    16.8
2001 02 28.5  13 05.13   -02 49.8    0.0044   0.994   143.7    36.2    17.0
2001 03 01.0  13 18.16   -04 08.0    0.0045   0.994   140.7    39.1    17.1
2001 03 01.5  13 30.70   -05 22.1    0.0046   0.994   137.9    42.0    17.2
2001 03 02.0  13 42.74   -06 32.2    0.0047   0.994   135.1    44.7    17.3

2001 03 03.0  14 05.43   -08 40.4    0.0049   0.994   130.1    49.6    17.6
2001 03 04.0  14 26.36   -10 33.1    0.0051   0.995   125.7    54.1    17.8
2001 03 05.0  14 45.68   -12 11.5    0.0053   0.995   121.7    58.1    18.0
2001 03 06.0  15 03.54   -13 37.1    0.0056   0.995   118.1    61.6    18.2
2001 03 07.0  15 20.09   -14 51.3    0.0058   0.995   114.9    64.8    18.4
2001 03 08.0  15 35.46   -15 55.8    0.0060   0.995   112.0    67.6    18.6
2001 03 09.0  15 49.77   -16 51.6    0.0063   0.995   109.5    70.2    18.7
2001 03 10.0  16 03.15   -17 40.0    0.0065   0.995   107.2    72.4    18.9
2001 03 11.0  16 15.69   -18 22.1    0.0068   0.995   105.1    74.5    19.0
2001 03 12.0  16 27.46   -18 58.5    0.0070   0.995   103.3    76.3    19.2
2001 03 13.0  16 38.55   -19 30.1    0.0072   0.995   101.6    78.0    19.3
2001 03 14.0  16 49.02   -19 57.5    0.0074   0.996   100.1    79.5    19.4
2001 03 15.0  16 58.93   -20 21.2    0.0076   0.996    98.8    80.8    19.5
2001 03 16.0  17 08.33   -20 41.7    0.0079   0.996    97.5    82.0    19.6
2001 03 17.0  17 17.26   -20 59.4    0.0081   0.996    96.4    83.1    19.7
2001 03 18.0  17 25.77   -21 14.5    0.0082   0.996    95.4    84.1    19.8
2001 03 19.0  17 33.89   -21 27.5    0.0084   0.996    94.5    85.0    19.9
2001 03 20.0  17 41.66   -21 38.5    0.0086   0.996    93.7    85.8    20.0
2001 03 21.0  17 49.10   -21 47.7    0.0088   0.997    93.0    86.5    20.0
2001 03 22.0  17 56.23   -21 55.3    0.0089   0.997    92.3    87.2    20.1
2001 03 23.0  18 03.09   -22 01.6    0.0091   0.997    91.7    87.8    20.2
2001 03 24.0  18 09.69   -22 06.6    0.0092   0.997    91.2    88.3    20.2
2001 03 25.0  18 16.05   -22 10.5    0.0094   0.997    90.7    88.8    20.3
2001 03 26.0  18 22.19   -22 13.3    0.0095   0.998    90.3    89.2    20.3
2001 03 27.0  18 28.13   -22 15.2    0.0096   0.998    89.9    89.6    20.4
2001 03 28.0  18 33.88   -22 16.3    0.0098   0.998    89.5    89.9    20.4
2001 03 29.0  18 39.47   -22 16.6    0.0099   0.998    89.2    90.2    20.5
2001 03 30.0  18 44.91   -22 16.3    0.010    0.999    89.0    90.5    20.5
2001 03 31.0  18 50.21   -22 15.2    0.010    0.999    88.7    90.7    20.5
2001 04 01.0  18 55.41   -22 13.6    0.010    0.999    88.5    90.9    20.6

Gareth V. Williams           (C) Copyright 2001 MPC           M.P.E.C. 2001-D28

Read MPEC 2001-D27 Read MPEC 2001-D29


Our Web policy. Index to the CBAT/MPC/ICQ pages.

